228P/LINEAR (2020)

Japanese version
Home page
Updated on April 25, 2020

---------------------------------------------------------------------

* Profile

* Pictures

* Orbital Elements

Epoch 2020 Mar. 12.0 TT = JDT 2458920.5
T 2020 Mar. 10.69776 TT                                 Rudenko
q   3.4358489            (2000.0)            P               Q
n   0.11555909     Peri.  115.30213     -0.82743796     -0.55706959
a   4.1744568      Node    30.98880     +0.45292904     -0.73662981
e   0.1769351      Incl.    7.90956     +0.33196643     -0.38347099
P   8.53
From 383 observations 2001 Dec. 9-2020 Mar. 28, mean residual 1".0.

* Magnitudes Graph

        m1 = 11.5 + 5 log d + 10.0 log r

---------------------------------------------------------------------

The orbital elements are published on M.P.E.C. 2020-G91.
The magnitudes graphs are made with Comet for Windows.

---------------------------------------------------------------------

Copyright(C) Seiichi Yoshida (comet@aerith.net). All rights reserved.